Arden, NC

6:41 AM EST on December 03, 2016 (GMT -0500)
Asheville Regional

Weather History for KAVL - August, 2013

Change the Weather History Date:

Monday, August 19, 2013

  Actual Average Record
Temperature  
Mean Temperature 69 °F 73 °F  
Max Temperature 73 °F 83 °F 96 °F (1983)
Min Temperature 64 °F 63 °F 51 °F (1896)
Degree Days  
Heating Degree Days 0 0  
Month to date heating degree days 5 0  
Since 1 June heating degree days 5 14  
Since 1 July heating degree days 5 0  
Cooling Degree Days 4 8  
Month to date cooling degree days 127 163  
Year to date cooling degree days 650 673  
Since 1 June cooling degree days 599 615  
Growing Degree Days 18 (Base 50)    
Moisture  
Dew Point 64 °F    
Average Humidity 87    
Maximum Humidity 100    
Minimum Humidity 73    
Precipitation  
Precipitation 1.38 in 0.14 in 1.53 in (2016)
Month to date precipitation 6.84 2.69  
Year to date precipitation 58.62 29.90  
Snow  
Snow 0.00 in 0.00 in 0.00 in ()
Month to date snowfall 0.0 0.0  
Since 1 June snowfall 0.0 0.0  
Since 1 July snowfall 0.0 0.0  
Snow Depth 0.00 in    
Sea Level Pressure  
Sea Level Pressure 30.19 in    
Wind  
Wind Speed 1 mph (South)    
Max Wind Speed 9 mph    
Max Gust Speed 13 mph    
Visibility 7 miles    
Events Rain    
T = Trace of Precipitation, MM = Missing Value Source: NWS Daily Summary

Daily Weather History Graph

Daily Weather History Graph

Search for Another Location

Airport or City:

Trip Planner

Search our weather history database for the weather conditions in past years. The results will help you decide how hot, cold, wet, or windy it might be!

Date:

Astronomy

Aug. 19, 2013 Rise Set
Actual Time 6:52 AM EDT 8:14 PM EDT
Civil Twilight 6:26 AM EDT 8:40 PM EDT
Nautical Twilight 5:54 AM EDT 9:12 PM EDT
Astronomical Twilight 5:20 AM EDT 9:45 PM EDT
Moon 7:04 PM EDT (8/19) 5:11 AM EDT (8/19)
Length of Visible Light 14h 14m
Length of Day
13h 21m
Waxing Gibbous, 97% of the Moon is Illuminated
Aug 19
Waxing Gibbous
Aug 20
Full
Aug 28
Last Quarter
Sep 5
New
Sep 12
First Quarter

Hourly Weather History & Observations

Time (EDT) Temp. Dew Point Humidity Pressure Visibility Wind Dir Wind Speed Gust Speed Precip Events Conditions
12:38 AM 66.2 °F 66.2 °F 100% 30.27 in 9.0 mi SSE 3.5 mph - 0.02 in Rain Light Rain
12:54 AM 66.0 °F 64.9 °F 96% 30.21 in 9.0 mi South 3.5 mph - 0.04 in Rain Light Rain
1:52 AM 66.2 °F 64.4 °F 94% 30.26 in 10.0 mi Calm Calm - 0.03 in Rain Light Rain
1:54 AM 66.0 °F 64.9 °F 96% 30.19 in 10.0 mi Calm Calm - 0.03 in Rain Light Rain
2:12 AM 66.2 °F 64.4 °F 94% 30.25 in 10.0 mi Calm Calm - 0.00 in Rain Light Rain
2:31 AM 64.4 °F 64.4 °F 100% 30.25 in 10.0 mi Calm Calm - 0.01 in Rain Light Rain
2:54 AM 64.9 °F 64.0 °F 97% 30.17 in 8.0 mi Calm Calm - 0.02 in Rain Light Rain
3:08 AM 66.2 °F 64.4 °F 94% 30.24 in 8.0 mi Calm Calm - 0.01 in Rain Light Rain
3:42 AM 64.4 °F 64.4 °F 100% 30.24 in 5.0 mi Calm Calm - 0.07 in Rain Heavy Rain
3:54 AM 64.9 °F 64.0 °F 97% 30.17 in 5.0 mi Calm Calm - 0.11 in Rain Rain
4:52 AM 64.4 °F 64.4 °F 100% 30.23 in 8.0 mi Calm Calm - 0.11 in Rain Light Rain
4:54 AM 64.9 °F 64.0 °F 97% 30.16 in 9.0 mi Calm Calm - 0.12 in Rain Light Rain
5:44 AM 64.4 °F 62.6 °F 94% 30.22 in 4.0 mi North 4.6 mph - 0.07 in Rain Rain
5:54 AM 64.9 °F 63.0 °F 93% 30.15 in 6.0 mi Calm Calm - 0.09 in Rain Rain
6:17 AM 64.4 °F 64.4 °F 100% 30.23 in 2.0 mi West 3.5 mph - 0.11 in Rain Heavy Rain
6:24 AM 64.4 °F 64.4 °F 100% 30.23 in 2.0 mi Calm Calm - 0.15 in Rain Heavy Rain
6:54 AM 64.0 °F 63.0 °F 96% 30.15 in 3.0 mi Calm Calm - 0.41 in Rain Heavy Rain
7:03 AM 64.4 °F 62.6 °F 94% 30.22 in 3.0 mi Calm Calm - 0.06 in Rain Heavy Rain
7:42 AM 64.4 °F 62.6 °F 94% 30.21 in 2.0 mi Calm Calm - 0.18 in Rain Heavy Rain
7:54 AM 64.0 °F 64.0 °F 100% 30.14 in 2.0 mi Calm Calm - 0.20 in Rain Rain
8:46 AM 64.4 °F 62.6 °F 94% 30.22 in 2.0 mi Calm Calm - 0.11 in Rain Light Rain
8:54 AM 64.9 °F 64.0 °F 97% 30.16 in 2.0 mi Calm Calm - 0.11 in Rain Light Rain
9:08 AM 64.4 °F 64.4 °F 100% 30.21 in 2.0 mi Calm Calm - 0.02 in Rain Rain
9:34 AM 64.4 °F 64.4 °F 100% 30.21 in 2.0 mi Calm Calm - 0.03 in   Overcast
9:54 AM 66.0 °F 63.0 °F 90% 30.15 in 2.0 mi Calm Calm - 0.03 in   Overcast
10:50 AM 68.0 °F 64.4 °F 88% 30.23 in 10.0 mi SSE 3.5 mph - N/A   Overcast
10:54 AM 66.9 °F 64.0 °F 90% 30.17 in 10.0 mi Variable 3.5 mph - N/A   Overcast
11:01 AM 68.0 °F 64.4 °F 88% 30.23 in 5.0 mi Calm Calm - N/A   Overcast
11:20 AM 69.8 °F 64.4 °F 83% 30.23 in 5.0 mi SSE 3.5 mph - N/A   Haze
11:54 AM 70.0 °F 64.0 °F 81% 30.17 in 5.0 mi South 3.5 mph - N/A   Haze
12:54 PM 71.1 °F 64.0 °F 78% 30.17 in 10.0 mi SSE 6.9 mph - N/A   Overcast
1:26 PM 71.6 °F 64.4 °F 78% 30.23 in 10.0 mi South 4.6 mph - N/A   Overcast
1:54 PM 71.1 °F 63.0 °F 75% 30.16 in 10.0 mi SE 4.6 mph - N/A   Overcast
2:54 PM 72.0 °F 64.9 °F 78% 30.14 in 10.0 mi Calm Calm - N/A   Overcast
3:54 PM 72.0 °F 64.0 °F 76% 30.12 in 10.0 mi Calm Calm - N/A   Overcast
4:54 PM 72.0 °F 66.0 °F 81% 30.11 in 10.0 mi South 8.1 mph - N/A   Overcast
5:54 PM 70.0 °F 66.0 °F 87% 30.11 in 10.0 mi SSW 3.5 mph - 0.00 in Rain Light Rain
6:15 PM 69.8 °F 66.2 °F 88% 30.18 in 5.0 mi SSW 4.6 mph - 0.01 in Rain Light Rain
6:32 PM 69.8 °F 66.2 °F 88% 30.18 in 5.0 mi Calm Calm - 0.03 in Rain Light Rain
6:54 PM 68.0 °F 66.0 °F 93% 30.12 in 3.0 mi Calm Calm - 0.06 in Rain Rain
7:08 PM 68.0 °F 66.2 °F 94% 30.18 in 2.0 mi WSW 3.5 mph - 0.02 in Rain Light Rain
7:51 PM 66.2 °F 64.4 °F 94% 30.19 in 1.2 mi Calm Calm - 0.12 in Rain Heavy Rain
7:54 PM 66.0 °F 64.9 °F 96% 30.14 in 1.5 mi Calm Calm - 0.13 in Rain Heavy Rain
8:03 PM 66.2 °F 64.4 °F 94% 30.19 in 2.0 mi Calm Calm - 0.02 in Rain Rain
8:52 PM 66.2 °F 64.4 °F 94% 30.20 in 5.0 mi Calm Calm - 0.06 in Rain Light Rain
8:54 PM 66.0 °F 64.9 °F 96% 30.14 in 5.0 mi Calm Calm - 0.06 in Rain Light Rain
9:03 PM 66.2 °F 64.4 °F 94% 30.21 in 6.0 mi Calm Calm - 0.00 in Rain Light Rain
9:28 PM 66.2 °F 64.4 °F 94% 30.21 in 8.0 mi Calm Calm - 0.01 in Rain Light Rain
9:54 PM 66.0 °F 64.9 °F 96% 30.15 in 10.0 mi Calm Calm - 0.01 in   Overcast
10:02 PM 66.2 °F 64.4 °F 94% 30.21 in 10.0 mi Calm Calm - N/A   Overcast
10:10 PM 66.2 °F 64.4 °F 94% 30.21 in 10.0 mi Calm Calm - N/A   Overcast
10:21 PM 66.2 °F 64.4 °F 94% 30.21 in 10.0 mi Calm Calm - N/A   Overcast
10:32 PM 66.2 °F 66.2 °F 100% 30.21 in 10.0 mi Calm Calm - N/A   Overcast
10:42 PM 66.2 °F 66.2 °F 100% 30.21 in 10.0 mi Calm Calm - N/A   Overcast
10:54 PM 66.9 °F 64.9 °F 93% 30.15 in 10.0 mi Calm Calm - N/A   Overcast
11:18 PM 66.2 °F 64.4 °F 94% 30.21 in 10.0 mi Calm Calm - N/A   Overcast
11:36 PM 66.2 °F 64.4 °F 94% 30.22 in 10.0 mi SE 3.5 mph - N/A   Overcast
11:54 PM 66.0 °F 64.9 °F 96% 30.16 in 10.0 mi Calm Calm - N/A   Overcast